When you browse on this site, cookies collect data to enhance your experience and personalize the content and advertising you see.
Visit our Privacy Policy to learn more. By continuing to use the site, you agree to this use of cookies and data.
  • In Romania
  • List of Countries
  • For 7 days
  • Water Temperature
  • Satellite Maps
  • Weather Map
  • Weather Widgets
  • user-avatar
    Login

    Hourly Weather Zaharkino

    Today, 19 March, Tuesday

    Time Temperature Precipitation Wind Pressure Humidity
    00:00 +2°C° 0.5 mm 3 mps 739 mmHg 92%
    01:00 +1°C° 0.5 mm 3 mps 739 mmHg 94%
    02:00 +2°C° 0.5 mm 2 mps 739 mmHg 96%
    03:00 +2°C° 0.5 mm 2 mps 739 mmHg 96%
    04:00 +1°C° 0.5 mm 2 mps 739 mmHg 97%
    05:00 +2°C° 0.5 mm 1 mps 739 mmHg 97%
    06:00 +3°C° 0 mm 1 mps 740 mmHg 95%
    07:00 +3°C° 0 mm 1 mps 740 mmHg 94%
    08:00 +3°C° 0 mm 1 mps 740 mmHg 92%
    09:00 +3°C° 0 mm 2 mps 740 mmHg 88%
    10:00 +4°C° 0 mm 2 mps 740 mmHg 85%
    11:00 +5°C° 0 mm 2 mps 741 mmHg 81%
    12:00 +5°C° 0 mm 3 mps 741 mmHg 79%
    13:00 +5°C° 0 mm 3 mps 741 mmHg 77%
    14:00 +5°C° 0 mm 3 mps 741 mmHg 76%
    15:00 +4°C° 0 mm 3 mps 741 mmHg 79%
    16:00 +4°C° 0 mm 2 mps 741 mmHg 83%
    17:00 +4°C° 0 mm 2 mps 741 mmHg 87%
    18:00 +3°C° 0 mm 2 mps 742 mmHg 88%
    19:00 +2°C° 0 mm 2 mps 742 mmHg 90%
    20:00 +1°C° 0 mm 2 mps 742 mmHg 91%
    21:00 +1°C° 0 mm 2 mps 742 mmHg 91%
    22:00 -1°C° 0 mm 2 mps 742 mmHg 92%
    23:00 -1°C° 0 mm 2 mps 742 mmHg 92%

    Tomorrow, 20 March, Wednesday

    Time Temperature Precipitation Wind Pressure Humidity
    00:00 -1°C° 0 mm 2 mps 743 mmHg 92%
    01:00 -1°C° 0 mm 2 mps 743 mmHg 92%
    02:00 -1°C° 0 mm 3 mps 743 mmHg 92%
    03:00 -2°C° 0 mm 3 mps 743 mmHg 92%
    04:00 -2°C° 0 mm 3 mps 743 mmHg 92%
    05:00 -2°C° 0 mm 3 mps 743 mmHg 93%
    06:00 -2°C° 0 mm 3 mps 743 mmHg 90%
    07:00 -1°C° 0 mm 3 mps 744 mmHg 87%
    08:00 -1°C° 0 mm 4 mps 744 mmHg 84%
    09:00 -1°C° 0 mm 4 mps 744 mmHg 81%
    10:00 0°C° 0 mm 4 mps 744 mmHg 79%
    11:00 0°C° 0 mm 4 mps 745 mmHg 77%
    12:00 0°C° 0 mm 4 mps 745 mmHg 76%
    13:00 +1°C° 0 mm 4 mps 745 mmHg 75%
    14:00 +1°C° 0 mm 4 mps 745 mmHg 74%
    15:00 0°C° 0 mm 4 mps 745 mmHg 76%
    16:00 +1°C° 0 mm 3 mps 745 mmHg 78%
    17:00 +1°C° 0 mm 3 mps 745 mmHg 80%
    18:00 0°C° 0 mm 3 mps 745 mmHg 82%
    19:00 -1°C° 0 mm 3 mps 745 mmHg 84%
    20:00 -2°C° 0 mm 3 mps 744 mmHg 86%
    21:00 -2°C° 0 mm 3 mps 744 mmHg 85%
    22:00 -2°C° 0 mm 3 mps 743 mmHg 84%
    23:00 -2°C° 0 mm 3 mps 743 mmHg 83%

    Day after tomorrow, 21 March, Thursday

    Time Temperature Precipitation Wind Pressure Humidity
    00:00 -2°C° 0.1 mm 3 mps 742 mmHg 85%
    01:00 -2°C° 0.1 mm 3 mps 742 mmHg 87%
    02:00 -3°C° 0.1 mm 4 mps 741 mmHg 89%
    03:00 -1°C° 0.3 mm 3 mps 741 mmHg 89%
    04:00 -1°C° 0.3 mm 3 mps 740 mmHg 90%
    05:00 -1°C° 0.3 mm 3 mps 740 mmHg 90%
    06:00 0°C° 0.1 mm 3 mps 740 mmHg 88%
    07:00 -1°C° 0.1 mm 4 mps 741 mmHg 86%
    08:00 -1°C° 0.1 mm 4 mps 741 mmHg 83%
    09:00 0°C° 0 mm 4 mps 742 mmHg 81%
    10:00 0°C° 0 mm 4 mps 742 mmHg 78%
    11:00 0°C° 0 mm 4 mps 742 mmHg 75%
    12:00 0°C° 0 mm 4 mps 743 mmHg 74%
    13:00 +1°C° 0 mm 4 mps 743 mmHg 73%
    14:00 +1°C° 0 mm 4 mps 744 mmHg 72%
    15:00 0°C° 0 mm 4 mps 744 mmHg 74%
    16:00 +1°C° 0 mm 3 mps 744 mmHg 77%
    17:00 +1°C° 0 mm 3 mps 744 mmHg 79%
    18:00 +1°C° 0 mm 2 mps 745 mmHg 84%
    19:00 -1°C° 0 mm 2 mps 745 mmHg 88%
    20:00 -2°C° 0 mm 2 mps 745 mmHg 92%
    21:00 -3°C° 0 mm 2 mps 745 mmHg 92%
    22:00 -3°C° 0 mm 2 mps 745 mmHg 93%
    23:00 -3°C° 0 mm 2 mps 745 mmHg 93%

    22 March, Friday

    Time Temperature Precipitation Wind Pressure Humidity
    00:00 -3°C° 0 mm 2 mps 744 mmHg 93%
    01:00 -3°C° 0 mm 2 mps 744 mmHg 93%
    02:00 -2°C° 0 mm 2 mps 744 mmHg 93%
    03:00 -2°C° 0 mm 3 mps 743 mmHg 91%
    04:00 -1°C° 0 mm 3 mps 743 mmHg 89%
    05:00 0°C° 0 mm 3 mps 743 mmHg 87%
    06:00 0°C° 0 mm 3 mps 742 mmHg 88%
    07:00 +1°C° 0 mm 3 mps 742 mmHg 89%
    08:00 +1°C° 0 mm 3 mps 742 mmHg 90%
    09:00 +2°C° 0.3 mm 3 mps 741 mmHg 90%
    10:00 +3°C° 0.3 mm 4 mps 741 mmHg 89%
    11:00 +3°C° 0.3 mm 4 mps 740 mmHg 89%
    12:00 +4°C° 0.1 mm 4 mps 739 mmHg 89%
    13:00 +4°C° 0.1 mm 4 mps 738 mmHg 89%
    14:00 +5°C° 0.1 mm 5 mps 737 mmHg 89%
    15:00 +5°C° 0.1 mm 5 mps 737 mmHg 89%
    16:00 +5°C° 0.1 mm 5 mps 736 mmHg 89%
    17:00 +4°C° 0.1 mm 6 mps 735 mmHg 88%
    18:00 +3°C° 0.2 mm 6 mps 735 mmHg 82%
    19:00 +2°C° 0.2 mm 6 mps 735 mmHg 75%
    20:00 0°C° 0.2 mm 7 mps 734 mmHg 69%
    21:00 0°C° 0 mm 7 mps 735 mmHg 71%
    22:00 -1°C° 0 mm 7 mps 735 mmHg 73%
    23:00 -2°C° 0 mm 7 mps 735 mmHg 74%

    23 March, Saturday

    Time Temperature Precipitation Wind Pressure Humidity
    00:00 -2°C° 0 mm 7 mps 736 mmHg 74%
    01:00 -2°C° 0 mm 7 mps 736 mmHg 75%
    02:00 -2°C° 0 mm 7 mps 736 mmHg 75%
    03:00 -3°C° 0 mm 7 mps 737 mmHg 75%
    04:00 -3°C° 0 mm 7 mps 737 mmHg 76%
    05:00 -3°C° 0 mm 6 mps 738 mmHg 76%
    06:00 -3°C° 0 mm 6 mps 738 mmHg 75%
    07:00 -3°C° 0 mm 6 mps 739 mmHg 74%
    08:00 -3°C° 0 mm 6 mps 739 mmHg 73%
    09:00 -2°C° 0 mm 6 mps 739 mmHg 71%
    10:00 -1°C° 0 mm 5 mps 739 mmHg 69%
    11:00 0°C° 0 mm 5 mps 739 mmHg 68%
    12:00 0°C° 0 mm 5 mps 739 mmHg 68%
    13:00 0°C° 0 mm 4 mps 738 mmHg 67%
    14:00 +1°C° 0 mm 4 mps 738 mmHg 67%
    15:00 0°C° 0.2 mm 4 mps 738 mmHg 72%
    16:00 +1°C° 0.2 mm 3 mps 737 mmHg 77%
    17:00 0°C° 0.2 mm 3 mps 737 mmHg 82%
    18:00 +1°C° 0.1 mm 2 mps 736 mmHg 85%
    19:00 -1°C° 0.1 mm 2 mps 736 mmHg 87%
    20:00 -1°C° 0.1 mm 2 mps 736 mmHg 90%
    21:00 -1°C° 0 mm 2 mps 736 mmHg 90%
    22:00 -1°C° 0 mm 2 mps 736 mmHg 90%
    23:00 -1°C° 0 mm 3 mps 737 mmHg 90%

    24 March, Sunday

    Time Temperature Precipitation Wind Pressure Humidity
    00:00 -1°C° 0 mm 3 mps 737 mmHg 88%
    01:00 -1°C° 0 mm 3 mps 737 mmHg 87%
    02:00 -1°C° 0 mm 3 mps 738 mmHg 85%
    03:00 -1°C° 0 mm 3 mps 738 mmHg 85%
    04:00 -1°C° 0 mm 3 mps 738 mmHg 86%
    05:00 -1°C° 0 mm 3 mps 738 mmHg 86%
    06:00 -1°C° 0 mm 3 mps 739 mmHg 84%
    07:00 -2°C° 0 mm 4 mps 739 mmHg 82%
    08:00 -2°C° 0 mm 4 mps 739 mmHg 80%
    09:00 -1°C° 0 mm 4 mps 739 mmHg 76%
    10:00 0°C° 0 mm 4 mps 739 mmHg 72%
    11:00 0°C° 0 mm 4 mps 739 mmHg 69%
    12:00 +2°C° 0 mm 3 mps 739 mmHg 65%
    13:00 +3°C° 0 mm 3 mps 739 mmHg 62%
    14:00 +3°C° 0 mm 3 mps 739 mmHg 59%
    15:00 +4°C° 0 mm 2 mps 738 mmHg 63%
    16:00 +3°C° 0 mm 2 mps 738 mmHg 67%
    17:00 +4°C° 0 mm 1 mps 737 mmHg 72%
    18:00 +3°C° 0 mm 1 mps 737 mmHg 75%
    19:00 +2°C° 0 mm 1 mps 736 mmHg 79%
    20:00 +1°C° 0 mm 1 mps 736 mmHg 83%
    21:00 +1°C° 0 mm 1 mps 735 mmHg 85%
    22:00 +1°C° 0 mm 1 mps 734 mmHg 87%
    23:00 +1°C° 0 mm 1 mps 734 mmHg 89%
    Show more